Location: Crab Orchard
(37.7292°N, 88.8042°W)
Time: 13:27:49
(UTC+00:00)

Cosmos 614 Rocket - Pass Details

Date: 08 December 2019
Orbit: 733 x 764 km, 74.1° (Epoch: 23 January)

Event Time Altitude Azimuth Distance (km) Brightness Sun altitude
Rises 23:47:27 0° 177° (S) 3,169 7.4 -13.7°
Reaches altitude 10° 23:49:56 10° 170° (S) 2,245 6.5 -14.2°
Maximum altitude 23:54:38 39° 102° (ESE) 1,092 4.4 -15.1°
Enters shadow 23:57:25 22° 46° (NE) 1,596 5.1 -15.6°
